Location: Central Falls
(41.8900°N, 71.3929°W)
Time: 11:16:07
(UTC+00:00)

A-11 Canister half - Pass Details

Date: 05 December 2023
Orbit: 1526 x 1682 km, 47.3° (Epoch: 20 February)

Event Time Altitude Azimuth Distance (km) Brightness Sun altitude
Rises 21:55:57 0° 202° (SSW) 4,895 12.4 -7.7°
Reaches altitude 10° 21:59:26 10° 194° (SSW) 3,921 11.7 -8.3°
Maximum altitude 22:08:14 36° 132° (SE) 2,458 9.9 -9.8°
Enters shadow 22:16:07 13° 75° (ENE) 3,690 10.3 -11.2°
Drops below altitude 10° 22:17:02 10° 72° (ENE) 3,933 - -11.4°
Sets 22:20:31 0° 64° (ENE) 4,912 - -12.0°
